Time,TemperatureF,DewpointF,PressureIn,WindDirection,WindDirectionDegrees,WindSpeedMPH,WindSpeedGustMPH,Humidity,HourlyPrecipIn,Conditions,Clouds,dailyrainin,SolarRadiationWatts/m^2,SoftwareType,DateUTC
2013-07-28 00:32:00,64.0,36.0,-100.00,West,279,2.0,7.0,35,0.00,,,0.00,0.000000,,2013-07-28 06:32:00,
2013-07-28 00:42:00,64.0,36.0,-100.00,West,279,2.0,7.0,35,0.00,,,0.00,0.000000,,2013-07-28 06:42:00,
2013-07-28 00:52:00,64.0,36.0,-100.00,West,279,2.0,7.0,35,0.00,,,0.00,0.000000,,2013-07-28 06:52:00,
2013-07-28 01:22:00,60.0,34.0,-100.00,SSE,167,0.0,5.0,38,0.00,,,0.00,0.000000,,2013-07-28 07:22:00,
2013-07-28 01:32:00,60.0,34.0,-100.00,SSE,167,0.0,5.0,38,0.00,,,0.00,0.000000,,2013-07-28 07:32:00,
2013-07-28 01:42:00,60.0,34.0,-100.00,SSE,167,0.0,5.0,38,0.00,,,0.00,0.000000,,2013-07-28 07:42:00,
2013-07-28 01:53:00,60.0,34.0,-100.00,SSE,167,0.0,5.0,38,0.00,,,0.00,0.000000,,2013-07-28 07:53:00,
2013-07-28 02:22:00,61.0,34.0,-100.00,SSW,197,1.0,3.0,36,0.00,,,0.00,0.000000,,2013-07-28 08:22:00,
2013-07-28 02:33:00,61.0,34.0,-100.00,SSW,197,1.0,3.0,36,0.00,,,0.00,0.000000,,2013-07-28 08:33:00,
2013-07-28 02:42:00,61.0,34.0,-100.00,SSW,197,1.0,3.0,36,0.00,,,0.00,0.000000,,2013-07-28 08:42:00,
2013-07-28 02:53:00,61.0,34.0,-100.00,SSW,197,1.0,3.0,36,0.00,,,0.00,0.000000,,2013-07-28 08:53:00,
2013-07-28 03:22:00,59.0,33.0,-100.00,SW,214,0.0,4.0,38,0.00,,,0.00,0.000000,,2013-07-28 09:22:00,
2013-07-28 03:32:00,59.0,33.0,-100.00,SW,214,0.0,4.0,38,0.00,,,0.00,0.000000,,2013-07-28 09:32:00,
2013-07-28 03:43:00,59.0,33.0,-100.00,SW,214,0.0,4.0,38,0.00,,,0.00,0.000000,,2013-07-28 09:43:00,
2013-07-28 03:53:00,59.0,33.0,-100.00,SW,214,0.0,4.0,38,0.00,,,0.00,0.000000,,2013-07-28 09:53:00,
2013-07-28 04:22:00,58.0,34.0,-100.00,East,90,1.0,2.0,40,0.00,,,-99.99,0.000000,,2013-07-28 10:22:00,
2013-07-28 04:32:00,58.0,34.0,-100.00,East,90,1.0,2.0,40,0.00,,,-99.99,0.000000,,2013-07-28 10:32:00,
2013-07-28 04:42:00,58.0,34.0,-100.00,East,90,1.0,2.0,40,0.00,,,-99.99,0.000000,,2013-07-28 10:42:00,
2013-07-28 04:52:00,58.0,34.0,-100.00,East,90,1.0,2.0,40,0.00,,,-99.99,0.000000,,2013-07-28 10:52:00,
2013-07-28 05:22:00,56.0,33.0,-100.00,East,93,1.0,2.0,42,-99.99,,,0.00,0.000000,,2013-07-28 11:22:00,
2013-07-28 05:33:00,56.0,33.0,-100.00,East,93,1.0,2.0,42,-99.99,,,0.00,0.000000,,2013-07-28 11:33:00,
2013-07-28 05:43:00,56.0,33.0,-100.00,East,93,1.0,2.0,42,-99.99,,,0.00,0.000000,,2013-07-28 11:43:00,
2013-07-28 05:53:00,56.0,33.0,-100.00,East,93,1.0,2.0,42,-99.99,,,0.00,0.000000,,2013-07-28 11:53:00,
2013-07-28 06:22:00,56.0,36.0,-100.00,SE,129,0.0,2.0,47,0.00,,,0.00,0.000000,,2013-07-28 12:22:00,
2013-07-28 06:33:00,56.0,36.0,-100.00,SE,129,0.0,2.0,47,0.00,,,0.00,0.000000,,2013-07-28 12:33:00,
2013-07-28 06:43:00,56.0,36.0,-100.00,SE,129,0.0,2.0,47,0.00,,,0.00,0.000000,,2013-07-28 12:43:00,
2013-07-28 06:53:00,56.0,36.0,-100.00,SE,129,0.0,2.0,47,0.00,,,0.00,0.000000,,2013-07-28 12:53:00,
2013-07-28 07:22:00,53.0,39.0,-100.00,East,94,2.0,2.0,60,-99.99,,,0.00,6.000000,,2013-07-28 13:22:00,
2013-07-28 07:32:00,53.0,39.0,-100.00,East,94,2.0,2.0,60,-99.99,,,0.00,6.000000,,2013-07-28 13:32:00,
2013-07-28 07:43:00,53.0,39.0,-100.00,East,94,2.0,2.0,60,-99.99,,,0.00,6.000000,,2013-07-28 13:43:00,
2013-07-28 07:52:00,53.0,39.0,-100.00,East,94,2.0,2.0,60,-99.99,,,0.00,6.000000,,2013-07-28 13:52:00,
2013-07-28 08:33:00,56.0,41.0,-100.00,East,98,0.0,2.0,56,0.00,,,0.00,62.000000,,2013-07-28 14:33:00,
2013-07-28 08:43:00,56.0,41.0,-100.00,East,98,0.0,2.0,56,0.00,,,0.00,62.000000,,2013-07-28 14:43:00,
2013-07-28 08:53:00,56.0,41.0,-100.00,East,98,0.0,2.0,56,0.00,,,0.00,62.000000,,2013-07-28 14:53:00,
2013-07-28 09:32:00,58.0,42.0,-100.00,ESE,104,0.0,3.0,55,0.00,,,0.00,58.000000,,2013-07-28 15:32:00,
2013-07-28 09:43:00,58.0,42.0,-100.00,ESE,104,0.0,3.0,55,0.00,,,0.00,58.000000,,2013-07-28 15:43:00,
2013-07-28 09:53:00,58.0,42.0,-100.00,ESE,104,0.0,3.0,55,0.00,,,0.00,58.000000,,2013-07-28 15:53:00,
2013-07-28 10:33:00,66.0,41.0,-100.00,SSW,212,0.0,4.0,40,0.00,,,0.00,292.000000,,2013-07-28 16:33:00,
2013-07-28 10:43:00,66.0,41.0,-100.00,SSW,212,0.0,4.0,40,0.00,,,0.00,292.000000,,2013-07-28 16:43:00,
2013-07-28 10:52:00,66.0,41.0,-100.00,SSW,212,0.0,4.0,40,0.00,,,0.00,292.000000,,2013-07-28 16:52:00,
2013-07-28 11:43:00,71.0,40.0,-100.00,WSW,243,2.0,5.0,32,0.00,,,0.00,623.000000,,2013-07-28 17:43:00,
2013-07-28 11:53:00,71.0,40.0,-100.00,WSW,243,2.0,5.0,32,0.00,,,0.00,623.000000,,2013-07-28 17:53:00,
2013-07-28 12:22:00,74.0,34.0,-100.00,WNW,295,4.0,7.0,23,0.00,,,0.00,779.000000,,2013-07-28 18:22:00,
2013-07-28 12:32:00,74.0,34.0,-100.00,WNW,295,4.0,7.0,23,0.00,,,0.00,779.000000,,2013-07-28 18:32:00,
2013-07-28 12:43:00,74.0,34.0,-100.00,WNW,295,4.0,7.0,23,0.00,,,0.00,779.000000,,2013-07-28 18:43:00,
2013-07-28 12:52:00,74.0,34.0,-100.00,WNW,295,4.0,7.0,23,0.00,,,0.00,779.000000,,2013-07-28 18:52:00,
2013-07-28 13:22:00,76.0,31.0,-100.00,WSW,248,4.0,9.0,19,0.00,,,0.00,884.000000,,2013-07-28 19:22:00,
2013-07-28 13:32:00,76.0,31.0,-100.00,WSW,248,4.0,9.0,19,0.00,,,0.00,884.000000,,2013-07-28 19:32:00,
2013-07-28 13:43:00,76.0,31.0,-100.00,WSW,248,4.0,9.0,19,0.00,,,0.00,884.000000,,2013-07-28 19:43:00,
2013-07-28 13:52:00,76.0,31.0,-100.00,WSW,248,4.0,9.0,19,0.00,,,0.00,884.000000,,2013-07-28 19:52:00,
2013-07-28 14:22:00,79.0,26.0,-100.00,WNW,283,4.0,11.0,14,0.00,,,0.00,932.000000,,2013-07-28 20:22:00,
2013-07-28 14:33:00,79.0,26.0,-100.00,WNW,283,4.0,11.0,14,0.00,,,0.00,932.000000,,2013-07-28 20:33:00,
2013-07-28 14:43:00,79.0,26.0,-100.00,WNW,283,4.0,11.0,14,0.00,,,0.00,932.000000,,2013-07-28 20:43:00,
2013-07-28 14:52:00,79.0,26.0,-100.00,WNW,283,4.0,11.0,14,0.00,,,0.00,932.000000,,2013-07-28 20:52:00,
2013-07-28 15:33:00,80.0,23.0,-100.00,West,274,4.0,12.0,12,0.00,,,0.00,932.000000,,2013-07-28 21:33:00,
2013-07-28 15:43:00,80.0,23.0,-100.00,West,274,4.0,12.0,12,0.00,,,0.00,932.000000,,2013-07-28 21:43:00,
2013-07-28 15:52:00,80.0,23.0,-100.00,West,274,4.0,12.0,12,0.00,,,0.00,932.000000,,2013-07-28 21:52:00,
2013-07-28 16:43:00,83.0,23.0,-100.00,West,260,4.0,11.0,11,0.00,,,0.00,879.000000,,2013-07-28 22:43:00,
2013-07-28 16:52:00,83.0,23.0,-100.00,West,260,4.0,11.0,11,0.00,,,0.00,879.000000,,2013-07-28 22:52:00,
2013-07-28 17:22:00,81.0,24.0,-100.00,West,266,4.0,12.0,12,0.00,,,0.00,765.000000,,2013-07-28 23:22:00,
2013-07-28 17:32:00,81.0,24.0,-100.00,West,266,4.0,12.0,12,0.00,,,0.00,765.000000,,2013-07-28 23:32:00,
2013-07-28 17:43:00,81.0,24.0,-100.00,West,266,4.0,12.0,12,0.00,,,0.00,765.000000,,2013-07-28 23:43:00,
2013-07-28 17:53:00,81.0,24.0,-100.00,West,266,4.0,12.0,12,0.00,,,0.00,765.000000,,2013-07-28 23:53:00,
2013-07-28 19:55:00,80.0,10.0,-100.00,WNW,286,4.0,12.0,7,0.00,,,0.00,301.000000,,2013-07-29 01:55:00,
2013-07-28 20:35:00,77.0,14.0,-100.00,West,270,2.0,8.0,9,0.00,,,0.00,278.000000,,2013-07-29 02:35:00,
2013-07-28 20:45:00,77.0,14.0,-100.00,West,270,2.0,8.0,9,0.00,,,0.00,278.000000,,2013-07-29 02:45:00,
2013-07-28 20:54:00,77.0,14.0,-100.00,West,270,2.0,8.0,9,0.00,,,0.00,278.000000,,2013-07-29 02:54:00,
2013-07-28 21:35:00,72.0,17.0,-100.00,WNW,282,3.0,6.0,12,-99.99,,,0.00,88.000000,,2013-07-29 03:35:00,
2013-07-28 21:45:00,72.0,17.0,-100.00,WNW,282,3.0,6.0,12,-99.99,,,0.00,88.000000,,2013-07-29 03:45:00,
2013-07-28 21:53:00,72.0,17.0,-100.00,WNW,282,3.0,6.0,12,-99.99,,,0.00,88.000000,,2013-07-29 03:53:00,
2013-07-28 22:22:00,68.0,24.0,-100.00,NW,308,1.0,4.0,19,-99.99,,,0.00,3.000000,,2013-07-29 04:22:00,
2013-07-28 22:32:00,68.0,24.0,-100.00,NW,308,1.0,4.0,19,-99.99,,,0.00,3.000000,,2013-07-29 04:32:00,
2013-07-28 22:43:00,68.0,24.0,-100.00,NW,308,1.0,4.0,19,-99.99,,,0.00,3.000000,,2013-07-29 04:43:00,
2013-07-28 22:53:00,68.0,24.0,-100.00,NW,308,1.0,4.0,19,-99.99,,,0.00,3.000000,,2013-07-29 04:53:00,
2013-07-28 23:22:00,64.0,28.0,-100.00,West,275,1.0,5.0,26,-99.99,,,0.00,0.000000,,2013-07-29 05:22:00,
2013-07-28 23:32:00,64.0,28.0,-100.00,West,275,1.0,5.0,26,-99.99,,,0.00,0.000000,,2013-07-29 05:32:00,
2013-07-28 23:42:00,64.0,28.0,-100.00,West,275,1.0,5.0,26,-99.99,,,0.00,0.000000,,2013-07-29 05:42:00,
2013-07-28 23:53:00,64.0,28.0,-100.00,West,275,1.0,5.0,26,-99.99,,,0.00,0.000000,,2013-07-29 05:53:00,